Regional Weather Roundup
Issued by NWS Jackson, KY

Home | Current Version | Previous Version | Text Only | Print | Product List | Glossary Off
Versions: 1 2 3 4 5 6 7 8 9 10 11 12 13 14 15 16 17 18 19 20 21 22 23 24 25 26 27 28 29 30 31 32 33 34 35 36 37 38 39 40 41 42 43 44 45 46 47 48 49 50

000
ASUS43 KJKL 271705
RWRJKL

EAST KENTUCKY HOURLY WEATHER ROUNDUP
NATIONAL WEATHER SERVICE JACKSON KY
100 PM EDT WED AUG 27 2014

NOTE: "FAIR" INDICATES FEW OR NO CLOUDS BELOW 12,000 FEET WITH
NO SIGNIFICANT WEATHER AND/OR OBSTRUCTIONS TO VISIBILITY.

* THESE REPORTS ARE NOT UNDER NWS QUALITY CONTROL AND MAY NOT
  REPORT WEATHER SUCH AS PRECIPITATION AND FOG.

KYZ079-080-083-085-087-088-110-112-115-119-120-271800
...EASTERN KENTUCKY...

CITY           SKY/WX    TMP DP  RH WIND       PRES   REMARKS
JACKSON        SUNNY     81  65  58 VRB5      30.15F
LONDON         SUNNY     84  65  52 VRB7      30.14F
SOMERSET*      SUNNY     82  63  51 E5        30.14F
MONTICELLO*    SUNNY     86  69  56 N7        30.14F HX  90
WILLIAMSBURG*  SUNNY     82  66  57 NE5       30.13
MIDDLESBORO*   SUNNY     81  66  59 CALM      30.14S
HARLAN APT*    SUNNY     81  63  54 MISG      30.15F
BLACK MTN*       N/A    N/A N/A N/A N5          N/A
PIKEVILLE APT* SUNNY     79  64  61 CALM      30.15F
BIG SANDY*     MOSUNNY   80  65  58 SW3       30.14F
MOREHEAD APT*  PTSUNNY   84  68  58 NW7       30.15S
$$

KYZ035-036-041-042-044-050-067-078-099-271800
...CENTRAL KENTUCKY...

CITY           SKY/WX    TMP DP  RH WIND       PRES   REMARKS
MT STERLING*   MOSUNNY   84  68  58 CALM      30.14F
FLEMING/MASON* SUNNY     84  70  63 CALM      30.13S
DANVILLE*      PTSUNNY   82  68  61 NE7       30.15S
RICHMOND*      PTSUNNY   84  66  54 E6        30.13S
LEXINGTON      SUNNY     88  70  55 N3        30.13F HX  93
FRANKFORT      SUNNY     87  71  58 CALM      30.11F HX  93
$$

KYZ091>093-OHZ055-061-077-WVZ005-015-034-035-042-271800
...SOUTHERN OHIO/WEST VIRGINIA...

CITY           SKY/WX    TMP DP  RH WIND       PRES   REMARKS
COVINGTON      MOSUNNY   87  70  56 CALM      30.09F HX  92
COLUMBUS       MOSUNNY   87  68  52 N5        30.08F HX  90
DAYTON         MOSUNNY   85  71  63 VRB3      30.11F HX  90
WILMINGTON     MOSUNNY   82  70  66 SE3       30.10F
HUNTINGTON     SUNNY     82  67  60 SW3       30.11F
CHARLESTON     MOSUNNY   83  63  50 VRB3      30.11F
PINEVILLE*     SUNNY     81  65  58 MISG      30.21S
BECKLEY        SUNNY     77  59  53 VRB5      30.19F
BLUEFIELD      SUNNY     79  55  43 VRB6      30.21F
$$

VAZ002-007-008-TNZ017-027-036-066-071-271800
...SOUTHWEST VIRGINIA/EAST TENNESSEE...

CITY           SKY/WX    TMP DP  RH WIND       PRES   REMARKS
WISE*          SUNNY     77  55  47 NE8       30.22S
JONESVILLE*      N/A     81  63  54 CALM      30.17S
ABINGDON*      SUNNY     80  56  43 CALM      30.18S
BRISTOL        MOSUNNY   80  60  50 VRB3      30.15F
KNOXVILLE      MOSUNNY   82  66  58 N5        30.12F
OAK RIDGE      SUNNY     83  65  54 CALM      30.14F
CROSSVILLE     PTSUNNY   81  62  52 CALM      30.17F
NASHVILLE      PTSUNNY   89  70  53 NE8       30.11F HX  94
$$

...KEY TO REMARKS...
VSB - VISIBILITY IN MILES
WCI - WIND CHILL INDEX
HX  - HEAT INDEX

$$


USA.gov is the U.S. government's official web portal to all federal, state and local government web resources and services.